User: anonymous   Login
Location: Hoyos del Collado
(40.3594°N, 5.2003°W)
Time: 11:32:04
(UTC+00:00)
Language:

Cosmos 540 Rocket - Orbit

View from above orbital plane
View from above orbital plane
View from above satellite
View from above satellite

Ground track
Ground track

The orbit data is extracted from the following two-line orbital elements,

1  6324U 72104B   24165.15210937  .00000473  00000-0  14502-3 0  9994
2  6324  74.0785  53.0859 0009945 254.4175 105.5885 14.44377745703977
Epoch (UTC): 13 June 2024 03:39:02
Eccentricity: 0.0009945
inclination: 74.0785°
perigee height: 737 km
apogee height: 751 km
right ascension of ascending node: 53.0859°
argument of perigee: 254.4175°
revolutions per day: 14.44377745
mean anomaly at epoch: 105.5885°
orbit number at epoch: 70397

The dashed part of the orbit path shows where the satellite is in the earth's shadow,  

DLR